Weather History for 40416 - June, 2013

Change the Weather History Date:

Saturday, June 8, 2013

  Actual Average Record
Temperature  
Mean Temperature 93 °F -  
Max Temperature 102 °F 107 °F - ()
Min Temperature 84 °F 82 °F - ()
Cooling Degree Days 28    
Growing Degree Days 43 (Base 50)    
Moisture  
Dew Point 37 °F    
Average Humidity 13    
Maximum Humidity 33    
Minimum Humidity 4    
Precipitation  
Precipitation 0.00 in 0.00 in - ()
Sea Level Pressure  
Sea Level Pressure 29.53 in    
Wind  
Wind Speed 24 mph ()    
Max Wind Speed 44 mph    
Max Gust Speed 45 mph    
Visibility 2.9 miles    
Events      
T = Trace of Precipitation, MM = Missing Value Source: Averaged Metar Reports

Daily Weather History Graph

Daily Weather History Graph

Search for Another Location

Airport or City:

Trip Planner

Search our weather history database for the weather conditions in past years. The results will help you decide how hot, cold, wet, or windy it might be!

Date:

Astronomy

Jun. 08, 2013 Rise Set
Actual Time 4:46 AM AST 6:30 PM AST
Civil Twilight 4:20 AM AST 6:56 PM AST
Nautical Twilight 3:48 AM AST 7:28 PM AST
Astronomical Twilight 3:16 AM AST 8:01 PM AST
Moon 4:30 AM AST (6/8) 6:19 PM AST (6/8)
Length of Visible Light 14h 36m
Length of Day
13h 44m
Waning Crescent, 0% of the Moon is Illuminated
Jun 8
Waning Crescent
Jun 8
New
Jun 16
First Quarter
Jun 23
Full
Jun 30
Last Quarter

Hourly Weather History & Observations

Time (AST) Temp. Dew Point Humidity Pressure Visibility Wind Dir Wind Speed Gust Speed Precip Events Conditions
12:00 AM 91 °F 27 °F 4% 29.56 in 6 mi NNW 23.0 mph - -   Blowing Sand
12:00 AM 91.4 °F 26.6 °F 10% 29.53 in 5.6 mi NNW 23.0 mph - N/A   Clear
1:00 AM 91.4 °F 28.4 °F 10% 29.53 in 5.6 mi North 27.6 mph - N/A   Clear
2:00 AM 87.8 °F 39.2 °F 18% 29.53 in 5.6 mi NNW 25.3 mph - N/A   Clear
3:00 AM 87 °F 39 °F 10% 29.54 in 6 mi NNW 20.7 mph - -   Blowing Sand
3:00 AM 87.8 °F 39.2 °F 18% 29.53 in 5.6 mi NNW 20.7 mph - N/A   Clear
4:00 AM 86.0 °F 50.0 °F 29% 29.53 in - North 18.4 mph - N/A   Clear
5:00 AM 84.2 °F 51.8 °F 33% 29.56 in 5.6 mi NNW 17.3 mph - N/A   Clear
6:00 AM 86 °F 50 °F 19% 29.56 in 4 mi North 20.7 mph - -   Blowing Sand
6:00 AM 86.0 °F 50.0 °F 29% 29.56 in 4.3 mi North 20.7 mph - N/A   Clear
7:00 AM 87.8 °F 44.6 °F 22% 29.56 in 3.7 mi NNW 20.7 mph - N/A   Clear
8:00 AM 91.4 °F 41.0 °F 17% 29.56 in 3.1 mi NNW 32.2 mph - N/A   Widespread Dust
9:00 AM 95 °F 43 °F 9% 29.59 in 2 mi NNW 28.8 mph - -   Blowing Sand
9:00 AM 95.0 °F 42.8 °F 16% 29.56 in 1.6 mi NNW 28.8 mph - N/A   Widespread Dust
10:00 AM 96.8 °F 37.4 °F 13% 29.56 in 0.5 mi North 40.3 mph - N/A   Clear
11:00 AM 100.4 °F 35.6 °F 11% 29.56 in 0.5 mi NNW 36.8 mph - N/A   Clear
12:00 PM 100 °F 34 °F 5% 29.56 in 0 mi North 43.7 mph - -   Light Sandstorm
12:00 PM 100.4 °F 33.8 °F 10% 29.53 in 0.5 mi North 43.7 mph - N/A   Clear
1:00 PM 100.4 °F 32.0 °F 9% 29.53 in 0.7 mi NNW 42.6 mph - N/A   Widespread Dust
2:00 PM 100.4 °F 33.8 °F 10% 29.50 in 0.7 mi North 39.1 mph - N/A   Widespread Dust
3:00 PM 100 °F 32 °F 4% 29.51 in 1 mi North 38.0 mph - -   Blowing Sand
3:00 PM 100.4 °F 32.0 °F 9% 29.50 in 0.7 mi North 38.0 mph - N/A   Widespread Dust
4:00 PM 100.4 °F 30.2 °F 9% 29.47 in 0.9 mi NNW 33.4 mph 44.9 mph N/A   Widespread Dust
5:00 PM 98.6 °F 30.2 °F 9% 29.47 in 1.2 mi North 29.9 mph 41.4 mph N/A   Widespread Dust
6:00 PM 97 °F 34 °F 5% 29.50 in 2 mi NNW 23.0 mph - -   Blowing Sand
6:00 PM 96.8 °F 33.8 °F 11% 29.47 in 1.9 mi NNW 23.0 mph 34.5 mph N/A   Widespread Dust
7:00 PM 95.0 °F 33.8 °F 12% 29.50 in 1.2 mi NNW 23.0 mph - N/A   Widespread Dust
8:00 PM 95.0 °F 33.8 °F 12% 29.50 in 2.5 mi NNW 21.9 mph - N/A   Widespread Dust
9:00 PM 94 °F 36 °F 6% 29.52 in 4 mi NNW 23.0 mph - -   Blowing Sand
9:00 PM 95.0 °F 35.6 °F 12% 29.50 in 3.7 mi NNW 23.0 mph - N/A   Clear
10:00 PM 93.2 °F 39.2 °F 15% 29.53 in 4.3 mi NW 20.7 mph - N/A   Clear
11:00 PM 91.4 °F 42.8 °F 18% 29.53 in 4.3 mi NW 20.7 mph - N/A   Clear